User: anonymous   Login
Location: Blue Mountain Vista Observatory
(40.6992°N, 75.9422°W)
Time: 06:30:51
(UTC-05:00)
Language:

Cosmos 1222 Rocket - Orbit

View from above orbital plane
View from above orbital plane
View from above satellite
View from above satellite

Ground track
Ground track

The orbit data is extracted from the following two-line orbital elements,

1 12072U 80093B   14353.86294480  .00095245  00000-0  70894-3 0  3168
2 12072 081.1793 095.8471 0007665 037.7547 322.4248 15.72438071875096
Epoch (UTC): 19 December 2014 20:42:38
Eccentricity: 0.0007665
inclination: 81.1793°
perigee height: 347 km
apogee height: 357 km
right ascension of ascending node: 95.8471°
argument of perigee: 37.7547°
revolutions per day: 15.72438071
mean anomaly at epoch: 322.4248°
orbit number at epoch: 87509

The dashed part of the orbit path shows where the satellite is in the earth's shadow,  

DLR